| time (UTC) | temp C | wind direction | speed KPH | gust KPH | rain 1hr cm | rain 24hr cm | rain mn cm | humidity % | barometer mb |
| 20260507094246 | 25 | 323 | 8.0 | 19.3 | 0.00 | 0.00 | 0.00 | 72 | 1006.6 |
| 20260507093748 | 25 | 20 | 8.0 | 19.3 | 0.00 | 0.00 | 0.00 | 71 | 1006.5 |
| 20260507093220 | 25 | 330 | 9.7 | 27.4 | 0.00 | 0.00 | 0.00 | 71 | 1006.6 |
| 20260507092718 | 25 | 2 | 11.3 | 27.4 | 0.00 | 0.00 | 0.00 | 71 | 1006.5 |
| 20260507092202 | 25 | 305 | 8.0 | 19.3 | 0.00 | 0.00 | 0.00 | 71 | 1006.7 |
| 20260507091700 | 25 | 278 | 9.7 | 24.1 | 0.00 | 0.00 | 0.00 | 71 | 1006.6 |
| 20260507091132 | 26 | 330 | 9.7 | 24.1 | 0.00 | 0.00 | 0.00 | 71 | 1006.6 |
| 20260507090627 | 26 | 24 | 12.9 | 29.0 | 0.00 | 0.00 | 0.00 | 71 | 1006.5 |
| 20260507090124 | 26 | 6 | 12.9 | 29.0 | 0.00 | 0.00 | 0.00 | 71 | 1006.4 |
| 20260507085622 | 25 | 10 | 12.9 | 25.7 | 0.00 | 0.00 | 0.00 | 71 | 1006.3 |
| 20260507085116 | 25 | 0 | 11.3 | 25.7 | 0.00 | 0.00 | 0.00 | 71 | 1006.1 |
| 20260507084600 | 25 | 339 | 8.0 | 24.1 | 0.00 | 0.00 | 0.00 | 71 | 1006.2 |
| 20260507084326 | 25 | 353 | 8.0 | 17.7 | 0.00 | 0.00 | 0.00 | 71 | 1006.4 |
| 20260507083805 | 26 | 353 | 8.0 | 20.9 | 0.00 | 0.00 | 0.00 | 71 | 1006.4 |
| 20260507083035 | 26 | 329 | 9.7 | 20.9 | 0.00 | 0.00 | 0.00 | 71 | 1006.5 |
| 20260507082509 | 26 | 10 | 11.3 | 24.1 | 0.00 | 0.00 | 0.00 | 70 | 1006.4 |
| 20260507082005 | 26 | 21 | 12.9 | 30.6 | 0.00 | 0.00 | 0.00 | 70 | 1006.4 |
| 20260507081503 | 26 | 12 | 12.9 | 30.6 | 0.00 | 0.00 | 0.00 | 70 | 1006.5 |
| 20260507080954 | 26 | 326 | 16.1 | 32.2 | 0.00 | 0.00 | 0.00 | 70 | 1006.5 |
| 20260507080432 | 26 | 303 | 14.5 | 32.2 | 0.00 | 0.00 | 0.00 | 70 | 1006.4 |
| 20260507075930 | 26 | 337 | 12.9 | 30.6 | 0.00 | 0.00 | 0.00 | 71 | 1006.4 |
| 20260507075430 | 26 | 345 | 11.3 | 30.6 | 0.00 | 0.00 | 0.00 | 71 | 1006.6 |
| 20260507074928 | 26 | 334 | 11.3 | 24.1 | 0.00 | 0.00 | 0.00 | 71 | 1006.6 |
| 20260507074404 | 26 | 314 | 12.9 | 32.2 | 0.00 | 0.00 | 0.00 | 71 | 1006.6 |
| 20260507074134 | 26 | 334 | 14.5 | 32.2 | 0.00 | 0.00 | 0.00 | 71 | 1006.6 |
| 20260507073358 | 26 | 20 | 12.9 | 27.4 | 0.00 | 0.00 | 0.00 | 71 | 1006.8 |
| 20260507072856 | 26 | 11 | 12.9 | 32.2 | 0.00 | 0.00 | 0.00 | 71 | 1007.0 |
| 20260507072331 | 26 | 3 | 14.5 | 32.2 | 0.00 | 0.00 | 0.00 | 71 | 1007.1 |
| 20260507071829 | 25 | 330 | 11.3 | 22.5 | 0.00 | 0.00 | 0.00 | 73 | 1007.2 |
| 20260507071326 | 25 | 8 | 9.7 | 20.9 | 0.00 | 0.00 | 0.00 | 73 | 1007.2 |
| 20260507070822 | 25 | 0 | 9.7 | 24.1 | 0.00 | 0.00 | 0.00 | 73 | 1007.3 |
| 20260507070322 | 25 | 343 | 9.7 | 24.1 | 0.00 | 0.00 | 0.00 | 73 | 1007.4 |
| 20260507065820 | 25 | 356 | 11.3 | 27.4 | 0.00 | 0.00 | 0.00 | 73 | 1007.4 |
| 20260507065316 | 25 | 351 | 9.7 | 27.4 | 0.00 | 0.00 | 0.00 | 74 | 1007.5 |
| 20260507064818 | 25 | 8 | 9.7 | 22.5 | 0.00 | 0.00 | 0.00 | 74 | 1007.7 |
| 20260507064251 | 25 | 340 | 11.3 | 24.1 | 0.00 | 0.00 | 0.00 | 74 | 1007.8 |
| 20260507063748 | 25 | 332 | 12.9 | 24.1 | 0.00 | 0.00 | 0.00 | 73 | 1007.8 |
| 20260507063501 | 25 | 3 | 11.3 | 22.5 | 0.00 | 0.00 | 0.00 | 74 | 1007.9 |
| 20260507062731 | 25 | 351 | 9.7 | 22.5 | 0.00 | 0.00 | 0.00 | 74 | 1007.9 |
| 20260507062228 | 25 | 343 | 9.7 | 25.7 | 0.00 | 0.00 | 0.00 | 74 | 1008.1 |
| 20260507061728 | 25 | 350 | 8.0 | 25.7 | 0.00 | 0.00 | 0.00 | 75 | 1008.0 |
| 20260507061218 | 25 | 0 | 8.0 | 17.7 | 0.00 | 0.00 | 0.00 | 75 | 1008.0 |
| 20260507060652 | 25 | 355 | 8.0 | 17.7 | 0.00 | 0.00 | 0.00 | 75 | 1008.1 |
| 20260507060133 | 25 | 14 | 8.0 | 17.7 | 0.00 | 0.00 | 0.00 | 74 | 1008.1 |
| 20260507055633 | 25 | 352 | 8.0 | 17.7 | 0.00 | 0.00 | 0.00 | 74 | 1008.1 |
| 20260507055336 | 25 | 0 | 9.7 | 20.9 | 0.00 | 0.00 | 0.00 | 74 | 1008.2 |
| 20260507054544 | 25 | 343 | 9.7 | 20.9 | 0.00 | 0.00 | 0.00 | 74 | 1008.4 |
| 20260507054044 | 25 | 14 | 9.7 | 19.3 | 0.00 | 0.00 | 0.00 | 74 | 1008.6 |
| 20260507053514 | 25 | 20 | 9.7 | 19.3 | 0.00 | 0.00 | 0.00 | 75 | 1008.5 |
| 20260507053011 | 25 | 357 | 8.0 | 19.3 | 0.00 | 0.00 | 0.00 | 76 | 1008.7 |
| 20260507052447 | 25 | 19 | 6.4 | 22.5 | 0.00 | 0.00 | 0.00 | 77 | 1008.9 |
| 20260507051947 | 24 | 1 | 6.4 | 22.5 | 0.00 | 0.00 | 0.00 | 80 | 1009.2 |
| 20260507051419 | 23 | 339 | 4.8 | 24.1 | 0.00 | 0.00 | 0.00 | 82 | 1009.3 |
| 20260507050905 | 23 | 2 | 4.8 | 24.1 | 0.00 | 0.00 | 0.00 | 84 | 1009.3 |
| 20260507050355 | 22 | 26 | 3.2 | 16.1 | 0.00 | 0.00 | 0.00 | 86 | 1009.4 |
| 20260507045831 | 22 | 15 | 3.2 | 16.1 | 0.00 | 0.00 | 0.00 | 89 | 1009.5 |
| 20260507045330 | 21 | 24 | 3.2 | 12.9 | 0.00 | 0.00 | 0.00 | 93 | 1009.5 |
| 20260507044828 | 21 | 70 | 4.8 | 17.7 | 0.00 | 0.00 | 0.00 | 95 | 1009.6 |
| 20260507044327 | 20 | 52 | 3.2 | 17.7 | 0.00 | 0.00 | 0.00 | 98 | 1009.6 |
| 20260507044039 | 20 | 304 | 0.0 | 8.0 | 0.00 | 0.00 | 0.00 | 98 | 1009.8 |
| 20260507043800 | 20 | 347 | 1.6 | 11.3 | 0.00 | 0.00 | 0.00 | 98 | 1009.7 |
| 20260507042735 | 20 | 56 | 0.0 | 8.0 | 0.00 | 0.00 | 0.00 | 98 | 1009.7 |
| 20260507042234 | 20 | 347 | 0.0 | 4.8 | 0.00 | 0.00 | 0.00 | 98 | 1009.9 |
| 20260507041729 | 19 | 194 | 0.0 | 4.8 | 0.00 | 0.00 | 0.00 | 98 | 1010.0 |
| 20260507041458 | 19 | 209 | 0.0 | 4.8 | 0.00 | 0.00 | 0.00 | 97 | 1010.1 |
| 20260507040726 | 19 | 214 | 0.0 | 1.6 | 0.00 | 0.00 | 0.00 | 97 | 1010.2 |
| 20260507040225 | 19 | 97 | 0.0 | 0.0 | 0.00 | 0.00 | 0.00 | 97 | 1010.3 |
| 20260507035726 | 19 | 97 | 0.0 | 0.0 | 0.00 | 0.00 | 0.00 | 97 | 1010.4 |
| 20260507035202 | 19 | 97 | 0.0 | 3.2 | 0.00 | 0.00 | 0.00 | 97 | 1010.3 |
| 20260507034924 | 19 | 97 | 0.0 | 3.2 | 0.00 | 0.00 | 0.00 | 96 | 1010.3 |
| 20260507034136 | 19 | 91 | 0.0 | 3.2 | 0.00 | 0.00 | 0.00 | 97 | 1010.3 |
| 20260507033630 | 19 | 91 | 0.0 | 3.2 | 0.00 | 0.00 | 0.00 | 97 | 1010.4 |
| 20260507033126 | 19 | 305 | 0.0 | 3.2 | 0.00 | 0.00 | 0.00 | 97 | 1010.5 |
| 20260507032858 | 19 | 18 | 0.0 | 0.0 | 0.00 | 0.00 | 0.00 | 96 | 1010.6 |
| 20260507032107 | 19 | 18 | 0.0 | 0.0 | 0.00 | 0.00 | 0.00 | 97 | 1010.7 |
| 20260507031604 | 19 | 18 | 0.0 | 0.0 | 0.00 | 0.00 | 0.00 | 96 | 1010.7 |
| 20260507031106 | 19 | 18 | 0.0 | 0.0 | 0.00 | 0.00 | 0.00 | 96 | 1010.7 |
| 20260507030549 | 19 | 342 | 0.0 | 0.0 | 0.00 | 0.00 | 0.00 | 96 | 1010.9 |
| 20260507030026 | 19 | 342 | 0.0 | 0.0 | 0.00 | 0.00 | 0.00 | 96 | 1011.0 |
| 20260507025458 | 19 | 342 | 0.0 | 0.0 | 0.00 | 0.00 | 0.00 | 95 | 1011.1 |
| 20260507024956 | 19 | 342 | 0.0 | 0.0 | 0.00 | 0.00 | 0.00 | 95 | 1011.1 |
| 20260507024454 | 19 | 342 | 0.0 | 0.0 | 0.00 | 0.00 | 0.00 | 95 | 1011.1 |
| 20260507023930 | 20 | 342 | 0.0 | 0.0 | 0.00 | 0.00 | 0.00 | 95 | 1011.1 |
| 20260507023430 | 20 | 342 | 0.0 | 0.0 | 0.00 | 0.00 | 0.00 | 95 | 1011.2 |
| 20260507022903 | 20 | 342 | 0.0 | 0.0 | 0.00 | 0.00 | 0.00 | 95 | 1011.2 |
| 20260507022400 | 20 | 342 | 0.0 | 0.0 | 0.00 | 0.00 | 0.00 | 95 | 1011.4 |
| 20260507021852 | 20 | 342 | 0.0 | 3.2 | 0.00 | 0.00 | 0.00 | 95 | 1011.3 |
| 20260507021350 | 20 | 342 | 0.0 | 3.2 | 0.00 | 0.00 | 0.00 | 95 | 1011.4 |
| 20260507020851 | 20 | 34 | 0.0 | 1.6 | 0.00 | 0.00 | 0.00 | 95 | 1011.5 |
| 20260507020324 | 20 | 83 | 0.0 | 3.2 | 0.00 | 0.00 | 0.00 | 95 | 1011.4 |
| 20260507015812 | 20 | 25 | 0.0 | 3.2 | 0.00 | 0.00 | 0.00 | 95 | 1011.5 |
| 20260507015247 | 20 | 53 | 0.0 | 3.2 | 0.00 | 0.00 | 0.00 | 95 | 1011.5 |
| 20260507014736 | 20 | 53 | 0.0 | 0.0 | 0.00 | 0.00 | 0.00 | 95 | 1011.4 |
| 20260507014235 | 20 | 53 | 0.0 | 0.0 | 0.00 | 0.00 | 0.00 | 95 | 1011.5 |
| 20260507013708 | 20 | 53 | 0.0 | 0.0 | 0.00 | 0.00 | 0.00 | 95 | 1011.5 |
| 20260507013204 | 20 | 53 | 0.0 | 3.2 | 0.00 | 0.00 | 0.00 | 95 | 1011.5 |
| 20260507012656 | 20 | 53 | 0.0 | 3.2 | 0.00 | 0.00 | 0.00 | 95 | 1011.6 |
| 20260507012129 | 20 | 53 | 0.0 | 0.0 | 0.00 | 0.00 | 0.00 | 95 | 1011.6 |
| 20260507011615 | 20 | 53 | 0.0 | 4.8 | 0.00 | 0.00 | 0.00 | 95 | 1011.8 |
| 20260507011341 | 20 | 53 | 0.0 | 4.8 | 0.00 | 0.00 | 0.00 | 95 | 1011.9 |
| 20260507010612 | 20 | 53 | 1.6 | 6.4 | 0.00 | 0.00 | 0.00 | 94 | 1011.9 |
| 20260507010048 | 20 | 226 | 0.0 | 6.4 | 0.00 | 0.00 | 0.00 | 94 | 1011.8 |
| 20260507005550 | 20 | 320 | 0.0 | 0.0 | 0.00 | 0.00 | 0.00 | 94 | 1011.6 |
| 20260507005043 | 20 | 320 | 0.0 | 0.0 | 0.00 | 0.00 | 0.00 | 94 | 1011.6 |
| 20260507004539 | 21 | 320 | 0.0 | 0.0 | 0.00 | 0.00 | 0.00 | 94 | 1011.7 |
| 20260507004036 | 21 | 320 | 0.0 | 0.0 | 0.00 | 0.00 | 0.00 | 94 | 1011.7 |
| 20260507003758 | 21 | 320 | 0.0 | 0.0 | 0.00 | 0.00 | 0.00 | 94 | 1011.8 |
| 20260507003233 | 21 | 320 | 0.0 | 0.0 | 0.00 | 0.00 | 0.00 | 94 | 1011.8 |
| 20260507002450 | 21 | 320 | 0.0 | 0.0 | 0.00 | 0.00 | 0.00 | 94 | 1011.7 |
| 20260507002211 | 21 | 320 | 0.0 | 0.0 | 0.00 | 0.00 | 0.00 | 94 | 1011.8 |
| 20260507002054 | 21 | 320 | 0.0 | 0.0 | 0.00 | 0.00 | 0.00 | 94 | 1011.9 |
| 20260507000936 | 21 | 320 | 0.0 | 0.0 | 0.00 | 0.00 | 0.00 | 93 | 1011.9 |
| 20260507000435 | 21 | 320 | 0.0 | 0.0 | 0.00 | 0.00 | 0.00 | 93 | 1011.9 |
| 20260507000428 | 21 | 320 | 0.0 | 0.0 | 0.00 | 0.00 | 0.00 | 93 | 1011.8 |
| 20260506235430 | 21 | 320 | 0.0 | 0.0 | 0.00 | 0.00 | 0.00 | 93 | 1011.9 |
| 20260506235148 | 21 | 320 | 0.0 | 0.0 | 0.00 | 0.00 | 0.00 | 93 | 1011.9 |
| 20260506234418 | 21 | 320 | 0.0 | 0.0 | 0.00 | 0.00 | 0.00 | 92 | 1011.9 |
| 20260506233905 | 21 | 320 | 0.0 | 0.0 | 0.00 | 0.00 | 0.00 | 92 | 1011.9 |
| 20260506233404 | 21 | 320 | 0.0 | 0.0 | 0.00 | 0.00 | 0.00 | 92 | 1012.0 |
| 20260506232904 | 21 | 266 | 0.0 | 0.0 | 0.00 | 0.00 | 0.00 | 92 | 1012.0 |
| 20260506232616 | 22 | 266 | 0.0 | 0.0 | 0.00 | 0.00 | 0.00 | 93 | 1011.9 |
| 20260506231818 | 21 | 266 | 0.0 | 0.0 | 0.00 | 0.00 | 0.00 | 93 | 1011.9 |
| 20260506231314 | 21 | 44 | 0.0 | 0.0 | 0.00 | 0.00 | 0.00 | 92 | 1011.8 |
| 20260506230806 | 22 | 44 | 0.0 | 0.0 | 0.00 | 0.00 | 0.00 | 92 | 1011.8 |
| 20260506230247 | 22 | 44 | 0.0 | 0.0 | 0.00 | 0.00 | 0.00 | 92 | 1011.8 |
| 20260506230017 | 22 | 337 | 0.0 | 0.0 | 0.00 | 0.00 | 0.00 | 91 | 1011.6 |
| 20260506225449 | 22 | 337 | 0.0 | 0.0 | 0.00 | 0.00 | 0.00 | 91 | 1011.7 |
| 20260506224718 | 22 | 337 | 0.0 | 0.0 | 0.00 | 0.00 | 0.00 | 91 | 1011.7 |
| 20260506224424 | 22 | 337 | 0.0 | 0.0 | 0.00 | 0.00 | 0.00 | 90 | 1011.7 |
| 20260506223624 | 22 | 337 | 0.0 | 0.0 | 0.00 | 0.00 | 0.00 | 89 | 1011.8 |
| 20260506223109 | 22 | 337 | 0.0 | 0.0 | 0.00 | 0.00 | 0.00 | 88 | 1011.6 |
| 20260506222605 | 22 | 337 | 0.0 | 0.0 | 0.00 | 0.00 | 0.00 | 88 | 1011.6 |
| 20260506222056 | 22 | 337 | 0.0 | 0.0 | 0.00 | 0.00 | 0.00 | 88 | 1011.6 |
| 20260506221829 | 23 | 337 | 0.0 | 0.0 | 0.00 | 0.00 | 0.00 | 87 | 1011.5 |
| 20260506221034 | 23 | 337 | 0.0 | 0.0 | 0.00 | 0.00 | 0.00 | 87 | 1011.6 |
| 20260506220534 | 23 | 337 | 0.0 | 0.0 | 0.00 | 0.00 | 0.00 | 86 | 1011.4 |
| 20260506220026 | 23 | 337 | 0.0 | 0.0 | 0.00 | 0.00 | 0.00 | 85 | 1011.4 |
| 20260506215516 | 23 | 337 | 0.0 | 0.0 | 0.00 | 0.00 | 0.00 | 85 | 1011.6 |
| 20260506215016 | 24 | 337 | 0.0 | 0.0 | 0.00 | 0.00 | 0.00 | 84 | 1011.4 |
| 20260506214516 | 24 | 337 | 0.0 | 0.0 | 0.00 | 0.00 | 0.00 | 83 | 1011.5 |
| 20260506214015 | 24 | 337 | 0.0 | 0.0 | 0.00 | 0.00 | 0.00 | 83 | 1011.4 |
| 20260506213504 | 25 | 337 | 0.0 | 0.0 | 0.00 | 0.00 | 0.00 | 82 | 1011.4 |
| 20260506213236 | 25 | 337 | 0.0 | 0.0 | 0.00 | 0.00 | 0.00 | 81 | 1011.5 |
| 20260506212720 | 25 | 337 | 0.0 | 0.0 | 0.00 | 0.00 | 0.00 | 81 | 1011.5 |
| 20260506212220 | 26 | 337 | 0.0 | 0.0 | 0.00 | 0.00 | 0.00 | 80 | 1011.5 |
| 20260506211426 | 26 | 337 | 0.0 | 0.0 | 0.00 | 0.00 | 0.00 | 78 | 1011.4 |
| 20260506210920 | 26 | 337 | 0.0 | 0.0 | 0.00 | 0.00 | 0.00 | 77 | 1011.4 |
| 20260506210356 | 27 | 337 | 0.0 | 0.0 | 0.00 | 0.00 | 0.00 | 76 | 1011.5 |
| 20260506205833 | 27 | 337 | 0.0 | 0.0 | 0.00 | 0.00 | 0.00 | 76 | 1011.6 |
| 20260506205559 | 27 | 337 | 0.0 | 1.6 | 0.00 | 0.00 | 0.00 | 75 | 1011.6 |
| 20260506204806 | 28 | 337 | 0.0 | 3.2 | 0.00 | 0.00 | 0.00 | 75 | 1011.5 |
| 20260506204303 | 28 | 22 | 0.0 | 1.6 | 0.00 | 0.00 | 0.00 | 74 | 1011.6 |
| 20260506203735 | 29 | 22 | 0.0 | 0.0 | 0.00 | 0.00 | 0.00 | 73 | 1011.7 |
| 20260506203218 | 29 | 22 | 0.0 | 0.0 | 0.00 | 0.00 | 0.00 | 72 | 1011.5 |
| 20260506202657 | 30 | 22 | 0.0 | 0.0 | 0.00 | 0.00 | 0.00 | 71 | 1011.6 |
| 20260506202128 | 30 | 22 | 0.0 | 0.0 | 0.00 | 0.00 | 0.00 | 70 | 1011.6 |
| 20260506201604 | 30 | 22 | 0.0 | 4.8 | 0.00 | 0.00 | 0.00 | 69 | 1011.5 |
| 20260506201039 | 31 | 22 | 0.0 | 4.8 | 0.00 | 0.00 | 0.00 | 67 | 1011.7 |
| 20260506200512 | 31 | 37 | 0.0 | 0.0 | 0.00 | 0.00 | 0.00 | 65 | 1011.6 |
| 20260506195947 | 32 | 37 | 0.0 | 0.0 | 0.00 | 0.00 | 0.00 | 65 | 1011.7 |
| 20260506195420 | 32 | 37 | 0.0 | 3.2 | 0.00 | 0.00 | 0.00 | 65 | 1011.8 |
| 20260506194919 | 32 | 37 | 1.6 | 4.8 | 0.00 | 0.00 | 0.00 | 64 | 1011.9 |
| 20260506194413 | 32 | 10 | 0.0 | 4.8 | 0.00 | 0.00 | 0.00 | 61 | 1011.7 |
| 20260506193850 | 32 | 357 | 0.0 | 4.8 | 0.00 | 0.00 | 0.00 | 62 | 1011.8 |
| 20260506193324 | 32 | 344 | 1.6 | 11.3 | 0.00 | 0.00 | 0.00 | 61 | 1011.8 |
| 20260506192818 | 32 | 18 | 1.6 | 11.3 | 0.00 | 0.00 | 0.00 | 61 | 1011.8 |
| 20260506192250 | 32 | 346 | 1.6 | 4.8 | 0.00 | 0.00 | 0.00 | 64 | 1011.8 |
| 20260506191747 | 32 | 37 | 1.6 | 6.4 | 0.00 | 0.00 | 0.00 | 62 | 1011.7 |
| 20260506191243 | 32 | 36 | 3.2 | 8.0 | 0.00 | 0.00 | 0.00 | 63 | 1011.8 |
| 20260506190718 | 32 | 353 | 1.6 | 8.0 | 0.00 | 0.00 | 0.00 | 61 | 1011.8 |
| 20260506190152 | 32 | 340 | 3.2 | 12.9 | 0.00 | 0.00 | 0.00 | 61 | 1011.8 |
| 20260506185640 | 32 | 328 | 3.2 | 12.9 | 0.00 | 0.00 | 0.00 | 61 | 1012.0 |
| 20260506185410 | 32 | 28 | 1.6 | 9.7 | 0.00 | 0.00 | 0.00 | 63 | 1011.8 |
| 20260506184906 | 32 | 0 | 3.2 | 9.7 | 0.00 | 0.00 | 0.00 | 62 | 1011.8 |
| 20260506184111 | 32 | 15 | 3.2 | 9.7 | 0.00 | 0.00 | 0.00 | 62 | 1011.8 |
| 20260506183559 | 32 | 8 | 3.2 | 9.7 | 0.00 | 0.00 | 0.00 | 61 | 1011.8 |
| 20260506183033 | 32 | 358 | 3.2 | 14.5 | 0.00 | 0.00 | 0.00 | 62 | 1012.0 |
| 20260506182503 | 32 | 37 | 3.2 | 9.7 | 0.00 | 0.00 | 0.00 | 62 | 1012.0 |
| 20260506182226 | 32 | 24 | 3.2 | 12.9 | 0.00 | 0.00 | 0.00 | 61 | 1012.2 |
| 20260506181427 | 32 | 344 | 4.8 | 12.9 | 0.00 | 0.00 | 0.00 | 61 | 1012.1 |
| 20260506181155 | 32 | 359 | 6.4 | 16.1 | 0.00 | 0.00 | 0.00 | 61 | 1012.2 |
| 20260506180421 | 32 | 11 | 6.4 | 16.1 | 0.00 | 0.00 | 0.00 | 59 | 1012.3 |
| 20260506175853 | 33 | 15 | 4.8 | 12.9 | 0.00 | 0.00 | 0.00 | 60 | 1012.3 |
| 20260506175344 | 33 | 338 | 4.8 | 12.9 | 0.00 | 0.00 | 0.00 | 60 | 1012.4 |
| 20260506174843 | 33 | 359 | 4.8 | 12.9 | 0.00 | 0.00 | 0.00 | 60 | 1012.5 |
| 20260506174615 | 33 | 66 | 6.4 | 12.9 | 0.00 | 0.00 | 0.00 | 61 | 1012.5 |
| 20260506173814 | 33 | 349 | 6.4 | 16.1 | 0.00 | 0.00 | 0.00 | 61 | 1012.7 |
| 20260506173248 | 33 | 347 | 6.4 | 17.7 | 0.00 | 0.00 | 0.00 | 61 | 1012.8 |
| 20260506172732 | 33 | 335 | 6.4 | 17.7 | 0.00 | 0.00 | 0.00 | 61 | 1012.8 |
| 20260506172231 | 32 | 335 | 4.8 | 16.1 | 0.00 | 0.00 | 0.00 | 62 | 1012.9 |
| 20260506171730 | 32 | 16 | 4.8 | 17.7 | 0.00 | 0.00 | 0.00 | 62 | 1013.0 |
| 20260506171230 | 32 | 335 | 8.0 | 19.3 | 0.00 | 0.00 | 0.00 | 62 | 1012.9 |
| 20260506170704 | 32 | 303 | 9.7 | 17.7 | 0.00 | 0.00 | 0.00 | 61 | 1013.0 |
| 20260506170408 | 32 | 325 | 9.7 | 20.9 | 0.00 | 0.00 | 0.00 | 61 | 1013.1 |
| 20260506165627 | 32 | 323 | 8.0 | 20.9 | 0.00 | 0.00 | 0.00 | 61 | 1013.1 |
| 20260506165353 | 32 | 327 | 8.0 | 19.3 | 0.00 | 0.00 | 0.00 | 63 | 1013.3 |
| 20260506164618 | 32 | 335 | 8.0 | 19.3 | 0.00 | 0.00 | 0.00 | 62 | 1013.2 |
| 20260506164048 | 32 | 8 | 6.4 | 19.3 | 0.00 | 0.00 | 0.00 | 61 | 1013.4 |
| 20260506163523 | 32 | 322 | 6.4 | 19.3 | 0.00 | 0.00 | 0.00 | 63 | 1013.4 |
| 20260506163227 | 31 | 323 | 6.4 | 19.3 | 0.00 | 0.00 | 0.00 | 62 | 1013.6 |
| 20260506162427 | 31 | 342 | 8.0 | 19.3 | 0.00 | 0.00 | 0.00 | 64 | 1013.6 |
| 20260506161859 | 31 | 318 | 6.4 | 19.3 | 0.00 | 0.00 | 0.00 | 62 | 1013.8 |
| 20260506161618 | 32 | 331 | 3.2 | 11.3 | 0.00 | 0.00 | 0.00 | 64 | 1013.8 |
| 20260506160848 | 31 | 346 | 4.8 | 14.5 | 0.00 | 0.00 | 0.00 | 64 | 1014.0 |
| 20260506160337 | 31 | 30 | 6.4 | 14.5 | 0.00 | 0.00 | 0.00 | 64 | 1014.1 |
| 20260506155820 | 31 | 318 | 6.4 | 24.1 | 0.00 | 0.00 | 0.00 | 65 | 1014.2 |
| 20260506155320 | 31 | 2 | 6.4 | 24.1 | 0.00 | 0.00 | 0.00 | 65 | 1014.3 |
| 20260506155052 | 31 | 59 | 4.8 | 19.3 | 0.00 | 0.00 | 0.00 | 66 | 1014.4 |
| 20260506154324 | 31 | 325 | 8.0 | 17.7 | 0.00 | 0.00 | 0.00 | 66 | 1014.5 |
| 20260506153803 | 30 | 6 | 9.7 | 19.3 | 0.00 | 0.00 | 0.00 | 66 | 1014.5 |
| 20260506153245 | 30 | 341 | 8.0 | 17.7 | 0.00 | 0.00 | 0.00 | 66 | 1014.6 |
| 20260506152742 | 30 | 345 | 6.4 | 17.7 | 0.00 | 0.00 | 0.00 | 67 | 1014.9 |
| 20260506152217 | 30 | 359 | 6.4 | 16.1 | 0.00 | 0.00 | 0.00 | 67 | 1014.9 |
| 20260506151649 | 30 | 0 | 6.4 | 19.3 | 0.00 | 0.00 | 0.00 | 67 | 1015.0 |
| 20260506151125 | 30 | 355 | 6.4 | 19.3 | 0.00 | 0.00 | 0.00 | 68 | 1015.2 |
| 20260506150625 | 30 | 5 | 9.7 | 17.7 | 0.00 | 0.00 | 0.00 | 70 | 1015.2 |
| 20260506150123 | 30 | 22 | 9.7 | 17.7 | 0.00 | 0.00 | 0.00 | 67 | 1015.3 |
| 20260506145626 | 30 | 19 | 8.0 | 22.5 | 0.00 | 0.00 | 0.00 | 68 | 1015.3 |
| 20260506145057 | 30 | 339 | 9.7 | 24.1 | 0.00 | 0.00 | 0.00 | 67 | 1015.4 |
| 20260506144827 | 30 | 9 | 8.0 | 24.1 | 0.00 | 0.00 | 0.00 | 67 | 1015.4 |
| 20260506144543 | 30 | 357 | 8.0 | 16.1 | 0.00 | 0.00 | 0.00 | 68 | 1015.4 |
| 20260506143539 | 29 | 83 | 8.0 | 17.7 | 0.00 | 0.00 | 0.00 | 68 | 1015.5 |
| 20260506143011 | 29 | 8 | 8.0 | 19.3 | 0.00 | 0.00 | 0.00 | 68 | 1015.5 |
| 20260506142506 | 29 | 357 | 8.0 | 19.3 | 0.00 | 0.00 | 0.00 | 69 | 1015.5 |
| 20260506142001 | 29 | 323 | 8.0 | 24.1 | 0.00 | 0.00 | 0.00 | 69 | 1015.6 |
| 20260506141434 | 28 | 336 | 9.7 | 24.1 | 0.00 | 0.00 | 0.00 | 68 | 1015.7 |
| 20260506140930 | 28 | 329 | 6.4 | 19.3 | 0.00 | 0.00 | 0.00 | 70 | 1015.8 |
| 20260506140426 | 28 | 6 | 4.8 | 19.3 | 0.00 | 0.00 | 0.00 | 71 | 1015.8 |
| 20260506135901 | 28 | 341 | 4.8 | 19.3 | 0.00 | 0.00 | 0.00 | 71 | 1015.9 |
| 20260506135349 | 28 | 323 | 4.8 | 12.9 | 0.00 | 0.00 | 0.00 | 72 | 1016.0 |
| 20260506134849 | 27 | 332 | 3.2 | 11.3 | 0.00 | 0.00 | 0.00 | 72 | 1016.1 |
| 20260506134323 | 27 | 13 | 1.6 | 11.3 | 0.00 | 0.00 | 0.00 | 76 | 1016.3 |
| 20260506133812 | 27 | 325 | 1.6 | 11.3 | 0.00 | 0.00 | 0.00 | 74 | 1016.3 |
| 20260506133311 | 27 | 296 | 3.2 | 11.3 | 0.00 | 0.00 | 0.00 | 79 | 1016.3 |
| 20260506133038 | 27 | 112 | 1.6 | 8.0 | 0.00 | 0.00 | 0.00 | 77 | 1016.3 |
| 20260506132534 | 26 | 1 | 1.6 | 6.4 | 0.00 | 0.00 | 0.00 | 75 | 1016.2 |
| 20260506131757 | 26 | 123 | 3.2 | 11.3 | 0.00 | 0.00 | 0.00 | 75 | 1016.2 |
| 20260506131251 | 26 | 141 | 3.2 | 11.3 | 0.00 | 0.00 | 0.00 | 76 | 1016.2 |
| 20260506130750 | 26 | 90 | 1.6 | 6.4 | 0.00 | 0.00 | 0.00 | 80 | 1016.3 |
| 20260506130248 | 26 | 107 | 1.6 | 4.8 | 0.00 | 0.00 | 0.00 | 80 | 1016.4 |
| 20260506125717 | 26 | 124 | 1.6 | 4.8 | 0.00 | 0.00 | 0.00 | 84 | 1016.5 |
| 20260506125150 | 25 | 92 | 0.0 | 3.2 | 0.00 | 0.00 | 0.00 | 84 | 1016.6 |
| 20260506124624 | 25 | 227 | 0.0 | 3.2 | 0.00 | 0.00 | 0.00 | 80 | 1016.7 |
| 20260506124119 | 25 | 298 | 1.6 | 6.4 | 0.00 | 0.00 | 0.00 | 84 | 1016.9 |
| 20260506123553 | 24 | 318 | 1.6 | 6.4 | 0.00 | 0.00 | 0.00 | 82 | 1016.9 |
| 20260506123026 | 24 | 289 | 0.0 | 4.8 | 0.00 | 0.00 | 0.00 | 84 | 1016.9 |
| 20260506122459 | 23 | 249 | 1.6 | 9.7 | 0.00 | 0.00 | 0.00 | 86 | 1016.8 |
| 20260506121956 | 23 | 306 | 1.6 | 9.7 | 0.00 | 0.00 | 0.00 | 86 | 1016.8 |
| 20260506121452 | 23 | 310 | 0.0 | 6.4 | 0.00 | 0.00 | 0.00 | 88 | 1016.6 |
| 20260506120923 | 23 | 217 | 0.0 | 0.0 | 0.00 | 0.00 | 0.00 | 92 | 1016.8 |
| 20260506120356 | 22 | 166 | 0.0 | 0.0 | 0.00 | 0.00 | 0.00 | 92 | 1016.8 |
| 20260506120101 | 22 | 106 | 0.0 | 1.6 | 0.00 | 0.00 | 0.00 | 92 | 1016.8 |
| 20260506115327 | 22 | 124 | 0.0 | 1.6 | 0.00 | 0.00 | 0.00 | 93 | 1016.6 |
| 20260506114758 | 22 | 177 | 0.0 | 1.6 | 0.00 | 0.00 | 0.00 | 94 | 1016.7 |
| 20260506114230 | 21 | 143 | 0.0 | 1.6 | 0.00 | 0.00 | 0.00 | 94 | 1016.7 |
| 20260506113958 | 21 | 153 | 0.0 | 0.0 | 0.00 | 0.00 | 0.00 | 95 | 1016.7 |
| 20260506113218 | 21 | 153 | 1.6 | 4.8 | 0.00 | 0.00 | 0.00 | 94 | 1016.8 |
| 20260506112715 | 21 | 131 | 3.2 | 8.0 | 0.00 | 0.00 | 0.00 | 94 | 1016.8 |
| 20260506112159 | 21 | 164 | 3.2 | 8.0 | 0.00 | 0.00 | 0.00 | 95 | 1016.8 |
| 20260506111931 | 21 | 305 | 3.2 | 14.5 | 0.00 | 0.00 | 0.00 | 95 | 1016.8 |
| 20260506111145 | 20 | 320 | 4.8 | 14.5 | 0.00 | 0.00 | 0.00 | 97 | 1016.7 |
| 20260506110645 | 20 | 333 | 6.4 | 14.5 | 0.00 | 0.00 | 0.00 | 99 | 1016.7 |
| 20260506110417 | 20 | 314 | 8.0 | 16.1 | 0.00 | 0.00 | 0.00 | 99 | 1016.8 |
| 20260506105851 | 20 | 282 | 6.4 | 16.1 | 0.00 | 0.00 | 0.00 | 99 | 1016.6 |
| 20260506105055 | 19 | 306 | 3.2 | 12.9 | 0.00 | 0.00 | 0.00 | 99 | 1016.5 |
| 20260506104813 | 19 | 303 | 1.6 | 11.3 | 0.00 | 0.00 | 0.00 | 99 | 1016.3 |
| 20260506104042 | 18 | 177 | 1.6 | 6.4 | 0.00 | 0.00 | 0.00 | 99 | 1016.3 |
| 20260506103809 | 18 | 40 | 1.6 | 6.4 | 0.00 | 0.00 | 0.00 | 99 | 1016.3 |
| 20260506103036 | 18 | 4 | 0.0 | 3.2 | 0.00 | 0.00 | 0.00 | 99 | 1016.2 |
| 20260506102525 | 18 | 177 | 0.0 | 4.8 | 0.00 | 0.00 | 0.00 | 99 | 1016.1 |
| 20260506102001 | 18 | 74 | 0.0 | 3.2 | 0.00 | 0.00 | 0.00 | 99 | 1015.9 |
| 20260506101439 | 18 | 237 | 1.6 | 4.8 | 0.00 | 0.00 | 0.00 | 99 | 1015.8 |
| 20260506101209 | 18 | 329 | 1.6 | 3.2 | 0.00 | 0.00 | 0.00 | 99 | 1015.8 |
| 20260506100659 | 17 | 268 | 0.0 | 4.8 | 0.00 | 0.00 | 0.00 | 99 | 1015.7 |
| 20260506100420 | 17 | 266 | 0.0 | 4.8 | 0.00 | 0.00 | 0.00 | 99 | 1015.7 |
| 20260506095416 | 17 | 30 | 0.0 | 0.0 | 0.00 | 0.00 | 0.00 | 99 | 1015.7 |
| 20260506094904 | 17 | 30 | 0.0 | 3.2 | 0.00 | 0.00 | 0.00 | 99 | 1015.7 |
| 20260506094633 | 17 | 30 | 1.6 | 4.8 | 0.00 | 0.00 | 0.00 | 99 | 1015.8 |